Location: Mount Cross
(36.6390°N, 79.4878°W)
Time: 20:26:21
(UTC+00:00)

Courier 1B Rocket - Pass Details

Date: 24 March 2023
Orbit: 920 x 1202 km, 28.2° (Epoch: 05 June)

Event Time Altitude Azimuth Distance (km) Brightness Sun altitude
Rises 01:11:27 0° 226° (SW) 3,825 8.5 -20.4°
Reaches altitude 10° 01:14:45 10° 214° (SW) 2,820 7.6 -21.0°
Maximum altitude 01:20:06 25° 162° (SSE) 1,887 6.2 -22.0°
Enters shadow 01:20:11 25° 161° (SSE) 1,886 6.2 -22.0°
Drops below altitude 10° 01:25:12 10° 109° (ESE) 2,680 - -23.0°
Sets 01:28:14 0° 97° (E) 3,595 - -23.5°
